{"data":{"norad_id":49450,"intl_designator":"2021-104AU","name":"STARLINK-3127","alt_names":[],"object_type":"PAYLOAD","status":"ACTIVE","operator":null,"country":"US","launch_date":"2021-11-13","launch_site_code":"AFETR","launch_vehicle":null,"mission":null,"orbit_class":"UNKNOWN","rcs_meters":null,"size_class":null,"mass_kg":null,"dimensions":null,"purposes":["comms"],"wikipedia_slug":null,"has_3d_model":false,"image_url":null,"decayed_at":null,"tle_current":{"epoch":"2026-05-24T16:07:25.367232Z","epoch_age_seconds":114131,"freshness":"FRESH","line1":"1 49450U 21104AU  26144.67182138  .00002524  00000+0  17663-3 0  9991","line2":"2 49450  53.2153 238.0603 0001257  85.4482 274.6654 15.08836104250503","mean_motion":15.08836104,"eccentricity":0.0001257,"inclination_deg":53.2153,"raan_deg":238.0603,"arg_perigee_deg":85.4482,"mean_anomaly_deg":274.6654,"bstar":0.00017663,"rev_number":25050,"period_min":95.437801109245,"perigee_km":538.88571844131,"apogee_km":540.6248765649,"semimajor_km":6917.8922975031,"source":"CELESTRAK","updated_at":"2026-05-25T13:38:16.803753Z"}}}